Theta_e
304 305 308 309 312 312 310 309 309 308 307 307 307 307 306 306 308 308 307 307 307 307 307 308 308 311 310 307 309 308 308 309 309 309 310 313 314 313 312 312 313 311 311 312 312 312 313
305 308 309 311 312 311 312 315 316 313 309 308 307 307 307 307 307 308 308 307 307 307 307 308 309 310 308 307 308 308 308 308 309 309 309 311 314 315 314 313 312 313 313 313 313 313 311
306 309 311 312 311 314 317 317 317 317 317 313 308 308 308 308 307 308 308 308 307 308 308 308 309 308 308 309 309 308 308 308 308 309 308 309 312 314 315 314 314 313 312 311 312 312 311
308 310 312 312 314 317 317 317 317 318 317 317 315 309 308 309 308 308 308 308 307 307 307 308 310 308 309 309 310 308 308 308 308 308 309 309 311 310 312 312 311 310 308 310 311 309 310
309 311 312 313 316 317 317 318 318 318 318 318 317 314 309 309 308 308 308 308 307 307 307 309 310 309 309 309 310 308 309 310 309 312 311 312 312 312 310 308 309 304 307 308 307 309 308
311 311 312 315 317 317 317 318 318 318 318 318 318 316 310 308 309 308 308 308 308 308 311 310 309 310 309 311 309 308 309 312 312 312 311 314 312 306 305 305 307 308 307 307 307 308 307
310 312 313 315 316 316 317 318 318 318 318 318 317 315 310 308 310 309 308 309 311 309 308 308 308 309 309 311 311 308 309 311 312 311 309 311 308 308 309 308 308 308 308 307 305 307 307
308 312 313 314 315 316 316 317 318 318 318 318 317 311 309 308 310 310 309 311 310 309 310 310 308 308 309 311 310 310 310 311 311 308 308 309 310 309 309 309 309 308 308 306 305 307 307
306 308 312 313 314 315 316 316 317 318 319 318 318 310 310 310 309 310 309 310 309 310 309 310 309 308 309 311 309 309 310 312 310 308 308 309 310 309 310 308 308 307 307 307 307 306 305
306 306 308 312 313 314 315 316 317 317 319 319 318 312 311 311 310 309 308 308 309 312 307 308 309 308 309 309 308 309 311 311 309 309 309 309 310 310 310 310 308 306 308 308 308 306 305
306 306 306 309 311 312 313 315 317 317 319 319 319 312 310 310 308 307 308 310 308 316 312 308 309 309 310 308 308 308 310 310 309 309 307 309 308 309 311 310 308 305 308 307 307 307 306
305 305 306 305 309 310 312 314 316 317 319 319 319 312 310 310 310 308 309 309 309 314 310 310 309 308 308 308 308 308 310 308 309 309 307 308 310 310 310 309 308 307 307 306 305 305 307
304 304 305 305 305 307 310 312 315 317 318 319 319 313 311 311 311 312 309 311 315 312 308 309 308 307 307 306 307 306 307 306 306 307 306 306 310 309 309 307 306 304 304 306 306 306 311
304 304 304 305 305 304 308 311 314 317 318 318 320 314 314 313 312 313 314 309 310 309 308 308 308 308 308 306 306 306 306 307 306 305 302 306 310 308 307 307 305 306 304 302 306 305 307
304 304 304 304 304 304 305 309 313 316 317 317 319 316 315 314 312 313 311 306 309 307 307 307 308 307 307 307 307 306 305 306 306 305 305 304 308 306 307 308 306 306 306 305 305 303 302
305 304 304 304 304 304 304 308 312 315 317 317 319 316 316 314 312 311 307 307 306 307 307 307 308 307 307 307 307 305 305 305 306 306 305 305 304 305 307 307 307 307 305 304 304 308 310
305 305 304 304 304 304 304 306 310 313 316 317 319 317 317 315 314 311 305 306 307 307 307 307 307 307 307 306 305 306 306 306 305 305 305 305 304 306 305 306 306 307 306 306 304 307 311
309 308 307 306 305 304 304 306 309 313 314 317 319 315 316 316 312 304 304 307 307 306 307 307 307 307 306 305 305 306 306 306 306 305 306 305 303 304 304 303 303 305 306 304 305 306 308
311 311 311 309 308 306 305 306 309 311 313 317 318 317 316 316 310 304 306 306 307 307 306 306 306 306 306 306 307 305 306 306 306 305 305 303 302 303 307 305 303 304 304 305 305 306 306
311 311 312 310 308 307 306 306 308 311 314 316 317 313 315 313 308 307 306 307 307 305 306 306 306 306 305 306 304 306 306 305 305 304 306 304 301 303 307 306 301 302 301 301 301 304 303
311 311 312 310 309 308 307 307 309 311 313 316 316 310 309 310 308 307 308 306 307 307 305 306 306 305 306 307 306 305 303 303 304 305 304 301 302 301 301 300 299 300 300 299 299 300 300
311 310 311 310 309 309 309 309 310 311 313 313 316 315 309 306 305 307 306 308 309 306 306 306 305 306 305 305 308 309 303 303 303 301 300 299 300 298 299 298 297 298 298 298 298 298 298
312 310 309 309 309 310 311 312 312 313 313 313 316 316 316 312 306 307 309 310 308 306 305 304 305 305 304 304 303 302 302 303 302 300 300 299 298 297 298 296 297 299 298 300 300 299 299
316 315 313 311 310 310 311 311 312 312 313 313 314 316 315 314 309 307 310 306 304 303 305 304 304 303 303 303 306 306 301 299 298 298 298 297 296 296 296 296 301 300 296 297 298 296 295
318 318 318 318 315 314 312 313 317 318 316 314 312 314 316 313 311 309 307 306 304 304 305 303 303 303 302 305 302 304 301 298 296 294 295 295 295 297 297 297 298 298 295 295 295 296 292
316 315 317 317 318 319 317 317 317 319 319 318 314 314 316 314 310 314 308 305 307 304 304 303 303 303 304 301 300 306 309 304 303 297 294 294 294 296 298 300 301 296 294 293 294 295 290
313 315 315 316 317 318 318 318 318 319 319 318 316 316 314 314 314 312 310 308 309 306 306 302 302 301 301 299 302 303 303 299 301 300 296 295 294 297 298 300 298 294 293 293 296 296 290
311 312 312 314 315 315 316 317 318 319 319 317 317 317 315 313 312 312 312 310 307 307 307 303 303 298 297 299 300 299 299 297 296 295 295 297 297 295 296 298 297 293 293 295 292 290 289
305 307 310 311 313 312 314 314 314 315 316 316 314 313 313 312 310 310 310 310 309 308 307 305 304 300 299 298 295 297 299 295 294 300 294 296 296 297 296 297 293 292 293 291 290 289 288
Wind_Speed
13 14 16 17 19 19 22 23 23 23 24 24 22 20 19 15 11 11 10 8 7 7 8 8 6 7 8 11 11 14 12 12 10 9 6 6 9 4 3 3 4 4 2 4 3 3 4
14 14 16 17 18 19 21 23 24 25 25 25 23 20 20 16 11 10 8 8 8 8 9 10 11 9 9 10 15 15 13 10 11 10 10 9 6 6 5 5 5 4 4 3 2 1 3
13 14 15 15 16 18 20 23 24 25 27 25 23 19 21 17 10 10 7 7 10 12 11 9 7 9 24 13 19 16 11 10 11 10 9 9 7 4 3 3 4 3 3 3 2 1 2
12 12 13 14 15 17 18 21 23 25 27 26 23 21 15 18 11 9 9 8 8 7 7 7 7 9 9 12 15 16 10 11 8 8 8 7 6 8 6 2 3 3 4 3 2 5 2
10 10 11 12 13 15 16 19 22 24 27 28 25 21 16 17 10 8 9 9 10 8 7 7 9 5 5 9 16 21 15 11 6 8 9 7 6 7 7 3 4 7 1 1 5 2 4
9 8 9 10 12 13 15 18 20 23 26 27 25 21 16 15 12 6 13 13 9 7 7 7 10 4 12 10 18 22 11 11 9 6 3 7 6 5 5 6 1 3 3 4 5 3 3
7 6 6 8 10 10 14 17 19 23 26 28 26 21 17 13 13 5 4 4 2 7 26 14 12 5 10 9 11 23 13 6 8 9 5 7 9 3 3 1 3 3 4 6 5 3 3
4 4 5 6 7 10 12 16 18 22 25 26 27 21 19 8 16 10 2 3 7 12 14 13 14 14 12 11 8 25 14 6 9 4 6 6 4 3 5 3 2 2 4 6 6 1 4
2 2 3 5 6 8 11 14 17 21 25 25 27 20 20 8 11 9 8 12 14 9 6 8 12 13 14 9 9 19 18 5 8 6 6 6 3 4 1 4 5 2 3 4 5 8 4
2 3 2 4 6 8 10 12 16 19 23 24 25 21 21 14 6 9 7 7 7 4 5 10 10 10 12 4 4 16 17 7 6 3 2 4 3 4 4 2 1 3 1 3 6 6 4
6 4 4 4 5 7 8 11 14 17 21 23 23 19 23 15 10 8 4 5 4 1 5 6 6 8 7 7 6 15 13 6 3 4 4 3 4 4 3 2 1 6 2 5 3 2 4
8 6 5 5 6 7 8 9 12 15 19 22 21 17 22 18 16 11 5 8 5 5 1 5 6 8 7 8 6 6 11 8 3 3 4 1 1 1 2 3 2 5 4 3 3 3 2
9 8 7 7 7 8 8 8 10 13 17 21 20 13 20 18 16 10 5 4 5 6 4 7 4 5 3 6 7 6 4 7 5 6 8 6 2 2 1 4 4 8 6 4 5 3 5
10 9 8 8 7 8 8 8 9 11 16 19 17 11 20 19 16 10 3 4 9 3 2 3 3 5 4 6 4 8 3 5 6 5 4 5 7 2 2 2 3 1 3 4 5 2 5
10 10 9 8 8 8 8 9 9 11 15 19 16 8 21 19 16 9 3 7 3 2 2 6 4 5 5 4 1 4 3 1 2 4 3 3 6 1 1 1 2 1 1 2 3 0 2
9 9 8 8 8 8 8 8 9 11 13 18 16 3 21 18 14 7 7 5 3 1 1 1 2 2 3 5 5 5 4 1 1 2 1 2 6 2 1 2 0 2 2 3 2 4 6
9 9 8 8 8 8 8 8 8 10 11 14 11 2 17 14 10 11 5 3 3 1 0 1 1 1 1 2 2 3 2 2 2 3 2 1 3 5 2 1 1 3 2 2 2 4 3
11 10 9 8 8 7 7 7 7 8 10 11 5 3 13 8 7 5 2 4 3 2 1 1 2 1 0 2 2 2 3 4 3 0 1 1 2 5 7 5 1 2 3 3 3 5 3
15 13 12 10 9 8 7 6 5 7 9 11 4 4 9 5 3 2 2 2 2 3 2 2 2 1 1 1 2 3 2 2 5 5 3 1 2 5 5 3 4 2 2 2 1 1 6
17 16 15 13 12 10 8 6 4 4 6 7 3 3 6 9 7 5 4 2 3 2 3 4 4 3 1 2 5 3 2 1 4 3 4 3 3 6 7 5 0 9 4 7 6 6 5
20 19 18 16 14 12 10 8 5 4 3 4 3 2 2 1 3 2 1 4 3 2 4 5 1 4 4 3 2 4 1 5 2 1 2 1 5 4 9 6 7 15 18 15 12 15 8
25 22 21 19 17 15 13 11 8 7 5 2 1 2 2 1 1 1 1 5 5 2 5 3 4 4 5 5 5 5 1 2 5 1 1 0 4 3 8 6 3 10 14 15 12 11 12
26 25 24 23 21 19 17 15 13 11 8 3 4 5 2 2 2 2 4 4 5 5 2 2 5 3 4 6 8 10 10 11 7 1 2 2 1 3 5 5 10 6 2 2 2 1 2
30 28 28 27 25 23 21 20 18 16 14 11 9 5 5 3 5 5 2 3 5 3 2 2 5 3 2 6 15 13 12 13 12 11 10 2 2 1 4 6 2 1 2 1 1 2 3
27 30 30 31 31 29 27 24 21 19 19 17 17 13 8 3 8 5 9 4 3 3 3 4 5 7 7 8 3 6 2 1 3 4 2 2 4 3 2 2 8 1 2 3 3 1 3
14 14 17 20 25 31 30 30 28 26 25 24 24 19 15 4 9 8 7 9 4 3 2 3 5 6 2 1 0 2 3 1 2 1 4 2 1 2 1 3 5 1 2 2 2 4 1
14 13 11 11 15 18 26 30 32 31 28 32 28 25 22 7 8 19 6 6 8 5 2 3 3 3 6 2 3 4 3 1 3 3 3 1 1 7 8 5 7 2 0 2 1 1 1
16 16 13 14 9 8 10 16 23 28 31 31 34 30 28 10 10 15 12 7 7 7 4 7 4 2 2 4 3 3 3 4 2 3 5 6 5 4 3 4 7 1 1 2 0 2 5
19 16 16 13 12 9 4 8 10 12 17 22 26 21 22 8 5 10 11 13 13 9 7 11 3 5 8 2 1 2 2 2 3 4 2 3 5 3 7 4 2 2 5 5 2 3 7
Wind_Direction
71 67 62 54 54 47 45 42 34 30 26 25 26 30 28 32 43 53 62 71 86 94 100 91 64 48 57 64 32 22 24 29 37 47 65 88 63 49 63 44 35 53 74 72 82 34 353
75 66 64 56 55 52 46 43 38 32 30 25 25 29 29 31 42 44 58 72 86 97 101 84 66 63 72 71 28 22 20 28 41 45 52 66 64 72 70 54 65 37 55 71 65 16 323
77 71 68 61 58 56 46 41 36 31 31 26 24 25 26 27 39 44 67 91 93 93 102 88 84 76 61 59 34 22 11 21 37 41 51 60 64 76 52 58 49 76 57 9 351 350 279
82 78 73 68 58 52 43 39 36 31 29 25 20 21 22 24 37 47 81 91 106 106 103 88 68 78 81 43 27 22 25 26 33 33 47 40 54 71 55 73 49 47 50 22 299 343 258
83 81 76 70 57 49 42 35 32 31 26 23 18 16 21 25 36 64 87 91 99 102 96 75 53 87 56 18 19 21 12 21 41 39 49 47 68 59 26 44 32 8 258 302 312 30 304
81 78 75 68 53 39 36 32 29 27 25 22 17 13 14 26 33 101 93 90 90 89 86 60 44 57 24 0 24 14 17 30 36 35 53 43 55 66 17 40 193 272 301 283 235 274 306
85 75 72 67 51 33 27 28 23 20 22 18 19 16 16 26 28 45 186 162 108 85 67 69 54 62 17 16 26 19 24 42 28 49 31 32 62 57 310 336 197 246 263 267 265 192 332
81 71 58 49 42 29 19 21 20 16 17 16 17 20 20 40 27 29 87 169 133 132 80 60 51 41 28 16 16 22 29 58 44 44 356 38 70 281 291 339 270 298 286 291 296 267 3
26 52 33 23 26 21 15 12 15 13 13 14 14 23 19 22 20 42 77 113 122 126 85 32 26 21 19 22 29 7 17 31 45 44 27 102 236 298 18 48 17 299 278 321 285 320 261
278 338 360 355 2 9 9 5 10 12 11 11 11 17 16 20 14 25 65 142 140 143 82 333 355 14 2 11 29 14 14 20 39 55 45 77 332 346 8 58 45 312 173 297 304 356 299
259 282 325 331 338 350 358 4 3 8 9 9 9 11 14 26 23 24 39 134 158 124 68 315 344 350 13 59 335 10 15 21 56 339 77 272 3 17 58 249 128 238 301 273 227 232 332
252 265 287 312 321 331 347 356 357 4 9 8 6 12 11 17 23 22 83 124 125 42 307 346 344 2 10 16 15 9 20 43 32 40 4 17 10 172 249 286 222 308 325 27 62 99 342
245 258 272 287 303 314 332 346 351 359 5 6 1 14 13 16 15 30 103 118 40 81 312 336 338 358 342 342 350 29 59 25 38 26 3 337 310 299 330 336 29 28 21 334 349 8 235
241 251 259 270 288 302 317 335 345 350 356 4 3 20 15 13 11 19 90 69 69 277 330 342 354 332 37 11 11 2 43 26 12 35 50 23 329 329 10 128 218 327 125 162 263 261 286
238 245 253 267 283 296 308 323 335 343 349 359 5 28 16 8 5 13 103 52 154 207 283 330 325 52 342 358 8 59 53 70 24 29 54 24 278 338 278 268 111 330 212 178 297 200 46
238 243 249 258 273 288 299 315 330 344 348 353 359 9 10 4 4 25 72 123 148 198 322 303 63 28 358 328 20 33 9 308 328 67 35 253 288 243 289 331 61 161 315 12 354 336 306
229 234 241 250 264 278 293 312 328 342 347 351 358 34 2 360 22 54 96 140 150 164 193 119 163 29 360 358 310 320 297 198 185 297 27 36 167 285 323 193 234 21 311 239 184 178 243
227 229 237 248 262 276 290 306 324 338 349 356 11 42 359 11 48 44 86 141 144 142 41 31 77 21 79 312 314 289 260 223 173 146 36 177 183 278 245 301 302 158 210 166 132 265 228
233 234 238 246 254 262 273 286 311 335 354 10 27 352 11 25 91 41 142 99 159 156 160 146 159 211 209 272 334 219 268 180 178 179 154 185 231 303 342 3 360 92 244 266 323 347 212
236 236 240 247 252 256 258 267 287 317 355 18 14 24 28 57 79 122 142 188 167 168 220 188 173 168 169 248 212 270 265 224 217 232 188 171 221 206 228 233 34 280 253 284 286 261 269
239 239 237 241 246 248 248 248 255 276 317 17 37 78 67 329 9 75 113 185 163 215 228 204 243 227 186 240 268 235 244 336 46 143 198 185 257 238 271 274 272 276 280 279 243 248 251
236 238 237 239 242 242 242 241 241 250 260 285 118 150 118 179 261 159 257 218 201 196 159 232 209 198 196 218 223 247 98 210 258 343 241 319 278 326 284 266 295 274 273 263 261 262 258
236 238 238 237 237 236 238 239 238 241 242 225 196 197 192 198 171 125 230 216 195 154 225 224 232 178 237 258 273 284 274 264 253 210 220 245 237 357 269 343 300 282 239 187 262 62 306
239 239 240 238 235 234 235 237 240 240 240 237 225 209 181 232 190 207 245 219 186 194 208 235 231 200 268 292 309 292 269 267 263 255 227 225 109 166 280 331 332 248 54 79 162 55 12
233 238 241 239 238 235 232 234 240 247 241 241 238 217 202 218 206 226 223 200 216 226 242 244 250 236 281 327 338 317 322 27 51 52 62 174 153 256 268 264 295 152 14 43 45 253 37
214 212 224 235 242 235 234 232 230 239 247 243 240 230 226 187 219 213 177 196 191 199 244 213 257 250 248 124 122 248 270 305 302 298 45 75 14 189 78 262 267 113 135 344 146 266 44
220 225 226 229 224 228 230 234 240 237 240 234 231 231 225 223 218 198 184 186 181 174 146 173 184 131 166 144 203 207 246 215 248 222 171 144 240 219 229 255 276 177 285 8 278 335 338
233 240 240 237 242 237 233 229 231 235 232 224 228 230 214 206 205 202 208 183 181 184 166 160 118 189 137 191 188 220 195 233 232 217 184 185 181 212 198 241 265 86 100 238 337 269 321
248 248 235 240 243 242 244 234 226 225 225 226 230 222 211 191 188 201 229 236 234 219 207 187 224 168 186 125 245 147 218 179 195 265 182 251 199 190 194 236 141 143 224 219 261 318 321